[[{"header":{"parameterUnit":"m.s-1","parameterCategory":1,"la1":30.2991,"la2":30.254,"lo1":-89.0895,"lo2":-89.0444,"dy":0.0017,"dx":0.0017,"nx":28,"ny":28,"refTime":"2024-07-23T03:00:00:Z","depth":0,"parameterNumber":2,"parameterNumberName":"U-component_of_WINDS"},"data":[0,0,0,0,0,0,0,0,0,0,0,0,0,0,0,0,0,0,0,0,0,0,0,0,0,0,0,0,0,0,0,0,0,0,0,0,0,0,0,0,0,0,0,0,0,0,0,0,0,0,0,0,0,0,0,0,0,0,-0.4306,-0.4305,0,-0.4288,-0.4288,-0.4288,-0.4284,-0.4284,-0.4284,-0.4284,-0.4265,-0.4265,-0.4264,0,0,0,0,0,0,0,0,0,0,0,0,0,-0.4335,-0.4334,-0.4306,-0.4305,-0.4305,-0.4289,-0.4288,-0.4288,-0.4284,-0.4284,-0.4284,-0.4284,-0.4266,-0.4265,-0.4264,0,0,0,0,0,0,0,0,0,0,0,0,0,-0.432,-0.4334,-0.4306,-0.4301,-0.4301,-0.4289,-0.4288,-0.4288,-0.4284,-0.4284,-0.4284,-0.4284,-0.4266,-0.4265,-0.4264,-0.4255,0,0,-0.4261,-0.4261,0,0,0,0,0,0,0,0,-0.4321,-0.4319,-0.4302,-0.4301,-0.4301,-0.4289,-0.4292,-0.4277,-0.4284,-0.429,-0.4284,-0.4284,-0.4273,-0.4271,-0.4268,-0.4254,-0.4253,-0.4261,-0.4261,-0.426,-0.426,0,0,0,0,0,0,0,-0.4322,-0.432,-0.4299,-0.4302,-0.4301,-0.43,-0.4298,-0.4289,-0.4281,-0.429,-0.4289,-0.4287,-0.4273,-0.4269,-0.4267,-0.4253,-0.4261,-0.4261,-0.426,-0.426,-0.4233,-0.4232,0,0,0,0,0,0,-0.4324,-0.4321,-0.4299,-0.4298,-0.4312,-0.4299,-0.4297,-0.4292,-0.4281,-0.4279,-0.4287,-0.4287,-0.427,-0.4268,-0.4267,-0.4256,-0.426,-0.4259,-0.4259,-0.4233,-0.4233,-0.4232,0,0,0,0,0,0,-0.4324,-0.4322,-0.43,-0.4309,-0.4307,-0.4299,-0.4293,-0.4292,-0.4288,-0.4279,-0.4278,-0.4285,-0.427,-0.4268,-0.4258,-0.4255,-0.4259,-0.4258,-0.4233,-0.4233,-0.4232,-0.4234,0,0,0,0,0,0,-0.4325,-0.4322,-0.4319,-0.4309,-0.4306,-0.4292,-0.4293,-0.4291,-0.4286,-0.4286,-0.4276,-0.4275,-0.427,-0.426,-0.4257,-0.4254,-0.4258,-0.4233,-0.4233,-0.4233,-0.4234,-0.4234,-0.4234,0,0,0,0,0,-0.4326,-0.4319,-0.4318,-0.4316,-0.4301,-0.4292,-0.429,-0.4285,-0.4286,-0.4283,-0.4277,-0.4275,-0.4256,-0.4259,-0.4256,-0.4252,-0.4233,-0.4233,-0.4233,-0.4234,-0.4234,-0.4234,0,0,0,0,0,0,-0.4327,-0.4318,-0.4317,-0.4306,-0.43,-0.4291,-0.4286,-0.4285,-0.4277,-0.4277,-0.4272,-0.4269,-0.426,-0.4255,-0.4259,-0.4244,-0.4245,-0.4244,-0.4247,-0.4247,-0.4246,-0.4247,-0.4257,0,0,0,0,0,-0.4327,-0.432,-0.4312,-0.4303,-0.43,-0.4294,-0.429,-0.4287,-0.428,-0.4277,-0.427,-0.4263,-0.4256,-0.4251,-0.4244,-0.4234,-0.4232,-0.423,-0.423,-0.423,-0.4229,-0.4224,-0.4223,-0.4231,-0.4231,-0.4231,0,0,-0.4324,-0.4318,-0.4314,-0.4303,-0.4298,-0.4291,-0.4292,-0.4284,-0.4279,-0.4275,-0.4266,-0.4262,-0.4253,-0.4244,-0.4239,-0.424,-0.4227,-0.4229,-0.4229,-0.4228,-0.4224,-0.4223,-0.4222,-0.4231,-0.4231,-0.4231,0,0,-0.4317,-0.4312,-0.4305,-0.43,-0.4292,-0.4288,-0.4287,-0.4278,-0.4275,-0.4266,-0.4264,-0.4258,-0.4245,-0.4239,-0.4235,-0.4228,-0.4226,-0.4225,-0.4223,-0.4219,-0.4219,-0.4218,-0.4216,-0.4215,-0.4225,-0.4225,-0.4225,0,-0.4315,-0.4305,-0.4301,-0.4294,-0.429,-0.4287,-0.428,-0.4276,-0.4266,-0.4263,-0.4263,-0.4248,-0.4242,-0.4232,-0.4231,-0.4227,-0.4225,-0.4226,-0.4219,-0.4218,-0.4218,-0.4216,-0.4215,-0.4225,-0.4225,-0.4225,-0.4225,0,-0.4303,-0.4296,-0.4292,-0.4283,-0.4278,-0.4271,-0.4267,-0.4262,-0.426,-0.4256,-0.4248,-0.4241,-0.4233,-0.423,-0.4228,-0.422,-0.4221,-0.422,-0.4221,-0.4217,-0.4215,-0.4214,-0.4225,-0.4225,-0.4225,-0.4225,0,0,-0.4295,-0.4285,-0.4284,-0.428,-0.4273,-0.4267,-0.4261,-0.4253,-0.425,-0.4244,-0.4238,-0.4228,-0.4228,-0.4223,-0.422,-0.4217,-0.4212,-0.4217,-0.4217,-0.4216,-0.4204,-0.4204,-0.4203,-0.4211,-0.4211,-0.4211,-0.4205,0,-0.4286,-0.4275,-0.4272,-0.4262,-0.4256,-0.4254,-0.4249,-0.4243,-0.424,-0.4235,-0.4231,-0.4224,-0.4224,-0.4222,-0.4218,-0.4213,-0.4209,-0.4214,-0.4206,-0.4206,-0.4208,-0.4202,-0.4202,-0.4196,-0.4204,-0.4204,-0.4203,0,-0.4275,-0.4269,-0.4259,-0.4253,-0.4251,-0.4246,-0.4239,-0.4234,-0.4229,-0.4227,-0.4222,-0.422,-0.4213,-0.4215,-0.4206,-0.4209,-0.4206,-0.4204,-0.4203,-0.4202,-0.4204,-0.4201,-0.4194,-0.4194,-0.4202,-0.4202,-0.4202,0,-0.427,-0.426,-0.4253,-0.425,-0.4243,-0.424,-0.4237,-0.4231,-0.4228,-0.4222,-0.422,-0.4213,-0.421,-0.4205,-0.4202,-0.4203,-0.4193,-0.4195,-0.4192,-0.4192,-0.4189,-0.4189,-0.4182,-0.4187,-0.4187,-0.4187,-0.4187,0,-0.4261,-0.4255,-0.4251,-0.4246,-0.424,-0.4237,-0.423,-0.4227,-0.4223,-0.4218,-0.4216,-0.4212,-0.4207,-0.4202,-0.42,-0.4193,-0.4191,-0.419,-0.4189,-0.419,-0.419,-0.4187,-0.4187,-0.4187,-0.4187,-0.4187,-0.4187,0,-0.4254,-0.4251,-0.4243,-0.4238,-0.4237,-0.4232,-0.4227,-0.4223,-0.4221,-0.4214,-0.4213,-0.4208,-0.4203,-0.4199,-0.4191,-0.4189,-0.4182,-0.4182,-0.4184,-0.4184,-0.4181,-0.4182,-0.4172,-0.4171,-0.4177,-0.4177,-0.4177,0,-0.4248,-0.4244,-0.4238,-0.4235,-0.4232,-0.4227,-0.4224,-0.4221,-0.4218,-0.4212,-0.4209,-0.4203,-0.4198,-0.4189,-0.4185,-0.418,-0.4179,-0.4176,-0.4178,-0.4179,-0.4179,-0.4179,-0.4179,-0.4175,-0.4175,-0.4175,-0.4175,0,-0.4238,-0.4238,-0.4233,-0.4228,-0.4224,-0.422,-0.4216,-0.4214,-0.4211,-0.4207,-0.4201,-0.4198,-0.4191,-0.4185,-0.418,-0.4177,-0.4175,-0.4175,-0.4174,-0.4174,-0.4176,-0.4176,-0.4183,-0.4175,-0.4175,-0.4175,-0.4175,-0.4175,-0.4232,-0.4228,-0.4224,-0.422,-0.4217,-0.4213,-0.4209,-0.4207,-0.4202,-0.4197,-0.4196,-0.419,-0.4186,-0.4178,-0.4175,-0.4171,-0.4171,-0.417,-0.4169,-0.4169,-0.4169,-0.4177,-0.417,-0.417,-0.417,-0.417,-0.417,0,-0.4222,-0.422,-0.4216,-0.4211,-0.4207,-0.4208,-0.4204,-0.4201,-0.4196,-0.4192,-0.4188,-0.4182,-0.4177,-0.4174,-0.4169,-0.4166,-0.4166,-0.4165,-0.4165,-0.4164,-0.4169,-0.417,-0.4165,-0.4165,-0.4165,-0.4165,-0.4165,-0.4165,-0.4217,-0.4211,-0.421,-0.4203,-0.4201,-0.4196,-0.4194,-0.4191,-0.4188,-0.4182,-0.4178,-0.4176,-0.4173,-0.4168,-0.4163,-0.4162,-0.4161,-0.416,-0.4159,-0.4163,-0.4164,-0.4164,-0.4166,-0.416,-0.416,-0.4155,-0.4155,-0.4155]},{"header":{"parameterUnit":"m.s-1","parameterCategory":1,"la1":30.2991,"la2":30.254,"lo1":-89.0895,"lo2":-89.0444,"dy":0.0017,"dx":0.0017,"nx":28,"ny":28,"refTime":"2024-07-23T03:00:00:Z","depth":0,"parameterNumber":3,"parameterNumberName":"V-component_of_WINDS"},"data":[0,0,0,0,0,0,0,0,0,0,0,0,0,0,0,0,0,0,0,0,0,0,0,0,0,0,0,0,0,0,0,0,0,0,0,0,0,0,0,0,0,0,0,0,0,0,0,0,0,0,0,0,0,0,0,0,0,0,3.9503,3.9503,0,3.9519,3.952,3.952,3.9549,3.955,3.955,3.9551,3.9565,3.9565,3.9565,0,0,0,0,0,0,0,0,0,0,0,0,0,3.9495,3.9495,3.9503,3.9503,3.9503,3.9519,3.952,3.952,3.9549,3.955,3.955,3.9551,3.9565,3.9565,3.9565,0,0,0,0,0,0,0,0,0,0,0,0,0,3.9503,3.9495,3.9503,3.952,3.9522,3.9519,3.952,3.952,3.9549,3.955,3.9551,3.9551,3.9565,3.9565,3.9565,3.9547,0,0,3.9564,3.9564,0,0,0,0,0,0,0,0,3.9503,3.9504,3.9517,3.9519,3.9521,3.9533,3.9522,3.9529,3.9549,3.9538,3.9551,3.9552,3.9554,3.9554,3.9556,3.9547,3.9548,3.9564,3.9564,3.9564,3.9564,0,0,0,0,0,0,0,3.9502,3.9503,3.9509,3.9517,3.9519,3.9526,3.9528,3.9523,3.9541,3.9539,3.9542,3.9543,3.9555,3.9556,3.9556,3.9548,3.9564,3.9564,3.9564,3.9564,3.9526,3.9525,0,0,0,0,0,0,3.95,3.9502,3.9509,3.951,3.9514,3.9526,3.9528,3.9528,3.9541,3.9544,3.9543,3.9545,3.9556,3.9556,3.9557,3.9536,3.9564,3.9564,3.9564,3.9527,3.9525,3.9525,0,0,0,0,0,0,3.9499,3.95,3.9508,3.9507,3.9508,3.9525,3.9525,3.9528,3.9529,3.9544,3.9547,3.954,3.9556,3.9557,3.9549,3.9537,3.9564,3.9563,3.9528,3.9526,3.9525,3.9495,0,0,0,0,0,0,3.9499,3.95,3.9493,3.9507,3.9508,3.9501,3.9524,3.9528,3.9529,3.9532,3.9542,3.9545,3.9557,3.9549,3.9549,3.9537,3.9563,3.9529,3.9527,3.9525,3.9497,3.9493,3.9489,0,0,0,0,0,3.9498,3.9483,3.9493,3.9493,3.9501,3.95,3.9501,3.9516,3.9528,3.9521,3.9531,3.9545,3.9539,3.9548,3.9548,3.9536,3.9529,3.9527,3.9526,3.9499,3.9494,3.9489,0,0,0,0,0,0,3.9467,3.9486,3.9496,3.9485,3.9491,3.9505,3.9497,3.951,3.9512,3.9514,3.9532,3.9534,3.9524,3.9529,3.954,3.9519,3.9536,3.9534,3.9516,3.9511,3.9507,3.9506,3.9563,0,0,0,0,0,3.9459,3.9458,3.9474,3.9462,3.9465,3.948,3.9481,3.9492,3.9498,3.9501,3.9509,3.9514,3.9514,3.9513,3.9513,3.9498,3.9501,3.949,3.9486,3.9483,3.948,3.9473,3.9468,3.9518,3.9518,3.9518,0,0,3.9442,3.9452,3.945,3.9456,3.9462,3.946,3.9482,3.9479,3.9477,3.95,3.9493,3.95,3.9506,3.9495,3.949,3.9499,3.9467,3.948,3.9477,3.9477,3.947,3.9466,3.9461,3.9517,3.9517,3.9517,0,0,3.941,3.9418,3.9409,3.9415,3.9424,3.9435,3.9433,3.9445,3.9451,3.9444,3.9462,3.9459,3.9458,3.9462,3.9464,3.9434,3.9447,3.9434,3.9413,3.9405,3.9401,3.9398,3.9387,3.9383,3.9432,3.9432,3.9432,0,3.9388,3.9385,3.9403,3.9398,3.9401,3.9423,3.9414,3.9418,3.9426,3.9427,3.9437,3.9436,3.9442,3.9432,3.9425,3.9426,3.9424,3.9432,3.9401,3.9397,3.9394,3.9384,3.938,3.943,3.943,3.943,3.943,0,3.9357,3.9355,3.9347,3.9356,3.9357,3.935,3.9366,3.9365,3.9377,3.9386,3.9379,3.9388,3.939,3.9388,3.9399,3.938,3.9385,3.9397,3.9415,3.9388,3.9378,3.9374,3.9428,3.9428,3.9429,3.9429,0,0,3.9305,3.9324,3.9321,3.9325,3.9337,3.9335,3.933,3.9333,3.9332,3.9337,3.9332,3.933,3.9342,3.9344,3.9356,3.9349,3.9325,3.9363,3.9363,3.9355,3.9304,3.9294,3.9289,3.9334,3.9333,3.9332,3.9303,0,3.9275,3.9267,3.9283,3.9271,3.9269,3.929,3.9285,3.9292,3.93,3.93,3.9309,3.9308,3.9324,3.9325,3.932,3.9329,3.9315,3.9331,3.9328,3.9328,3.9326,3.9284,3.9273,3.9245,3.9299,3.9299,3.9298,0,3.9239,3.9243,3.9231,3.9244,3.9244,3.9239,3.9243,3.9243,3.925,3.9257,3.926,3.9274,3.9268,3.9286,3.9278,3.9289,3.9289,3.9293,3.9293,3.9292,3.9311,3.9282,3.9237,3.9232,3.9293,3.9293,3.9294,0,3.9201,3.9204,3.9197,3.92,3.9215,3.9212,3.9218,3.9226,3.9227,3.9231,3.9232,3.9234,3.9235,3.9237,3.925,3.9262,3.9241,3.926,3.9246,3.9245,3.924,3.924,3.9193,3.9241,3.9241,3.9241,3.9241,0,3.9166,3.9157,3.9181,3.9176,3.9168,3.9186,3.9177,3.9185,3.9192,3.9189,3.9208,3.9204,3.9223,3.9222,3.9232,3.9224,3.9225,3.923,3.9232,3.9228,3.9227,3.9227,3.9229,3.924,3.924,3.924,3.924,0,3.9122,3.9138,3.9132,3.9147,3.9151,3.9143,3.9156,3.9152,3.9163,3.9159,3.9159,3.9175,3.9174,3.9188,3.919,3.9197,3.9184,3.9191,3.9182,3.9184,3.9169,3.917,3.912,3.9115,3.9166,3.9166,3.9165,0,3.9098,3.9092,3.9108,3.9107,3.9113,3.9112,3.9114,3.9132,3.9132,3.9141,3.9136,3.9137,3.9139,3.9137,3.9148,3.9149,3.9156,3.9138,3.9156,3.9151,3.9155,3.9155,3.9154,3.9134,3.9134,3.9133,3.9133,0,3.9054,3.9062,3.9064,3.9069,3.907,3.9074,3.908,3.9078,3.9098,3.9097,3.9098,3.9099,3.9102,3.9102,3.9106,3.9111,3.9125,3.9127,3.9124,3.9119,3.9114,3.9116,3.9171,3.9128,3.9129,3.9129,3.9129,3.9129,3.9019,3.9015,3.9025,3.9027,3.9033,3.9038,3.9035,3.9046,3.9046,3.905,3.9061,3.9059,3.9067,3.9074,3.9078,3.9076,3.9085,3.908,3.9079,3.9077,3.9075,3.9115,3.9077,3.9077,3.9077,3.9077,3.9078,0,3.8976,3.8983,3.8985,3.8992,3.8993,3.9007,3.9014,3.9014,3.9012,3.9019,3.9021,3.9021,3.9022,3.9033,3.9035,3.9032,3.9038,3.9031,3.9032,3.9032,3.9067,3.9069,3.9026,3.9026,3.9026,3.9026,3.9026,3.9026,3.8953,3.8947,3.8956,3.8953,3.8961,3.896,3.8963,3.8967,3.8973,3.8972,3.8973,3.8981,3.899,3.8993,3.8994,3.8997,3.8997,3.8988,3.8993,3.9025,3.903,3.9035,3.9037,3.8988,3.8988,3.8959,3.8959,3.8959]}]]